User: anonymous   Login
Location: Unspecified
(0.0000°N, 0.0000°E)
Time: 00:49:54
(UTC+00:00)
Language:

AEROCUBE 2 - Orbit

View from above orbital plane
View from above orbital plane
View from above satellite
View from above satellite

Ground track
Ground track

The orbit data is extracted from the following two-line orbital elements,

1 31133U 07012R   21023.50305658  .00000143  00000-0  39309-4 0  9997
2 31133  98.1930 330.4195 0080414 351.4541   8.5284 14.59283547732409
Epoch (UTC): 23 January 2021 12:04:24
Eccentricity: 0.0080414
inclination: 98.1930°
perigee height: 638 km
apogee height: 752 km
right ascension of ascending node: 330.4195°
argument of perigee: 351.4541°
revolutions per day: 14.59283547
mean anomaly at epoch: 8.5284°
orbit number at epoch: 73240

The dashed part of the orbit path shows where the satellite is in the earth's shadow,  

DLR